Rochester, NY

10:04 AM EDT on October 18, 2019 (GMT -0400)
Greater Rochester International

Weather History for KROC - May, 2019

Change the Weather History Date:

Friday, May 3, 2019

  Actual Average Record
Temperature  
Mean Temperature 50 °F 53 °F  
Max Temperature 56 °F 63 °F 91 °F (1944)
Min Temperature 44 °F 42 °F 27 °F (1911)
Degree Days  
Heating Degree Days 15 13  
Month to date heating degree days 34 39  
Since 1 July heating degree days 6158 6342  
Cooling Degree Days 0 0  
Month to date cooling degree days 0 0  
Year to date cooling degree days 0 4  
Moisture  
Dew Point 46 °F    
Average Humidity 85    
Maximum Humidity 93    
Minimum Humidity 77    
Precipitation  
Precipitation 0.26 in 0.09 in 0.78 in (1945)
Month to date precipitation 0.80 0.27  
Year to date precipitation 10.73 9.86  
Snow  
Snow 0.00 in 0.00 in 2.00 in (1911)
Month to date snowfall 0.0 0.1  
Since 1 July snowfall 97.1 99.2  
Snow Depth 0.00 in    
Sea Level Pressure  
Sea Level Pressure 30.01 in    
Wind  
Wind Speed 5 mph (NNE)    
Max Wind Speed 15 mph    
Max Gust Speed 18 mph    
Visibility 7 miles    
Events Rain    
T = Trace of Precipitation, MM = Missing Value Source: NWS Daily Summary

Daily Weather History Graph

Daily Weather History Graph

Search for Another Location

Airport or City:

Astronomy

May. 03, 2019 Rise Set
Actual Time 6:01 AM EDT 8:14 PM EDT
Civil Twilight 5:30 AM EDT 8:45 PM EDT
Nautical Twilight 4:51 AM EDT 9:24 PM EDT
Astronomical Twilight 4:09 AM EDT 10:07 PM EDT
Moon 5:46 AM EDT (5/3) 6:55 PM EDT (5/3)
Length of Visible Light 15h 14m
Length of Day
14h 12m
Waning Crescent, 2% of the Moon is Illuminated
May 3
Waning Crescent
May 4
New
May 11
First Quarter
May 18
Full
May 26
Last Quarter

Hourly Weather History & Observations

Time (EDT) Temp. Windchill Dew Point Humidity Pressure Visibility Wind Dir Wind Speed Gust Speed Precip Events Conditions
12:54 AM 46.9 °F - 44.1 °F 90% 30.11 in 4.0 mi East 4.6 mph - N/A   Overcast
1:54 AM 48.0 °F - 45.0 °F 89% 30.06 in 3.0 mi East 6.9 mph - N/A   Overcast
2:54 AM 48.0 °F - 46.0 °F 93% 30.04 in 3.0 mi ENE 5.8 mph - 0.00 in   Light Drizzle
3:54 AM 48.0 °F - 46.0 °F 93% 30.04 in 2.5 mi NNE 6.9 mph - 0.02 in Rain Light Rain
4:54 AM 45.0 °F 40.6 °F 43.0 °F 93% 30.01 in 3.0 mi ENE 8.1 mph - 0.06 in Rain Light Rain
5:54 AM 46.0 °F 43.9 °F 43.0 °F 89% 29.99 in 6.0 mi ENE 4.6 mph - 0.10 in Rain Light Rain
6:54 AM 46.9 °F - 44.1 °F 90% 30.01 in 3.0 mi ENE 3.5 mph - 0.01 in Rain Light Rain
7:16 AM 46.9 °F - 44.1 °F 90% 29.99 in 5.0 mi Calm Calm - 0.00 in Rain Light Rain
7:37 AM 46.9 °F - 45.0 °F 93% 29.99 in 6.0 mi Calm Calm - 0.01 in Rain Light Rain
7:54 AM 46.9 °F - 45.0 °F 93% 30.01 in 5.0 mi Calm Calm - 0.01 in Rain Light Rain
8:16 AM 48.0 °F - 45.0 °F 89% 29.99 in 2.5 mi Calm Calm - 0.02 in Rain Rain
8:28 AM 48.0 °F - 45.0 °F 89% 29.99 in 2.5 mi NNW 3.5 mph - 0.04 in Rain Light Rain
8:31 AM 48.0 °F - 45.0 °F 89% 29.99 in 4.0 mi Calm Calm - 0.04 in Rain Light Rain
8:54 AM 48.9 °F - 46.0 °F 90% 30.01 in 5.0 mi North 3.5 mph - 0.05 in Rain Light Rain
9:54 AM 50.0 °F - 46.9 °F 89% 30.01 in 5.0 mi North 3.5 mph - 0.00 in   Overcast
10:27 AM 52.0 °F - 48.0 °F 86% 29.99 in 7.0 mi Calm Calm - N/A   Mostly Cloudy
10:54 AM 54.0 °F - 50.0 °F 86% 30.01 in 7.0 mi WNW 5.8 mph - N/A   Overcast
11:10 AM 55.0 °F - 51.1 °F 86% 30.00 in 10.0 mi NW 4.6 mph - N/A   Overcast
11:54 AM 53.1 °F - 48.9 °F 86% 30.01 in 10.0 mi NNW 6.9 mph - N/A   Overcast
12:54 PM 52.0 °F - 48.9 °F 89% 30.01 in 10.0 mi NW 5.8 mph - 0.00 in   Overcast
1:54 PM 55.9 °F - 50.0 °F 80% 30.01 in 10.0 mi NNW 6.9 mph - N/A   Overcast
2:03 PM 55.0 °F - 48.9 °F 80% 30.00 in 10.0 mi North 8.1 mph - N/A   Overcast
2:54 PM 55.0 °F - 48.9 °F 80% 30.01 in 10.0 mi North 9.2 mph - N/A   Overcast
3:54 PM 53.1 °F - 46.9 °F 80% 30.01 in 10.0 mi North 11.5 mph - N/A   Overcast
4:18 PM 51.1 °F - 46.0 °F 83% 29.99 in 10.0 mi NNE 12.7 mph - N/A   Overcast
4:54 PM 48.9 °F - 45.0 °F 86% 30.01 in 10.0 mi North 8.1 mph - N/A   Overcast
5:54 PM 48.9 °F - 45.0 °F 86% 30.02 in 10.0 mi Calm Calm - 0.01 in Rain Light Rain
6:54 PM 50.0 °F - 46.0 °F 86% 30.01 in 10.0 mi NNE 3.5 mph - 0.00 in   Overcast
7:54 PM 50.0 °F - 45.0 °F 83% 30.01 in 10.0 mi Calm Calm - N/A   Overcast
8:33 PM 50.0 °F - 46.0 °F 86% 30.01 in 10.0 mi Calm Calm - N/A   Overcast
8:54 PM 50.0 °F - 46.0 °F 86% 30.03 in 10.0 mi NNW 3.5 mph - N/A   Overcast
9:01 PM 50.0 °F - 46.0 °F 86% 30.01 in 10.0 mi Calm Calm - N/A   Overcast
9:54 PM 50.0 °F - 46.0 °F 86% 30.01 in 10.0 mi NNE 8.1 mph - N/A   Overcast
10:01 PM 50.0 °F - 46.0 °F 86% 30.00 in 10.0 mi NNE 9.2 mph - N/A   Overcast
10:54 PM 48.0 °F - 45.0 °F 89% 30.03 in 10.0 mi NE 3.5 mph - N/A   Overcast
11:41 PM 48.0 °F - 45.0 °F 89% 30.00 in 5.0 mi NE 4.6 mph - N/A   Overcast
11:54 PM 48.0 °F - 46.0 °F 93% 30.01 in 5.0 mi ENE 3.5 mph - N/A   Overcast